Time,TemperatureF,DewpointF,PressureIn,WindDirection,WindDirectionDegrees,WindSpeedMPH,WindSpeedGustMPH,Humidity,HourlyPrecipIn,Conditions,Clouds,dailyrainin,SolarRadiationWatts/m^2,SoftwareType,DateUTC
2013-01-03 00:02:00,-2.0,-7.0,-100.00,WSW,242,4.0,4.0,81,-99.99,,,0.00,0.120000,,2013-01-03 07:02:00,
2013-01-03 00:12:00,-2.0,-7.0,-100.00,WSW,242,4.0,4.0,81,-99.99,,,0.00,0.120000,,2013-01-03 07:12:00,
2013-01-03 00:42:00,-5.0,-10.0,-100.00,WSW,256,1.0,2.0,77,-99.99,,,0.00,0.120000,,2013-01-03 07:42:00,
2013-01-03 00:53:00,-5.0,-10.0,-100.00,WSW,256,1.0,2.0,77,-99.99,,,0.00,0.120000,,2013-01-03 07:53:00,
2013-01-03 01:02:00,-5.0,-10.0,-100.00,WSW,256,1.0,2.0,77,-99.99,,,0.00,0.120000,,2013-01-03 08:02:00,
2013-01-03 01:11:00,-5.0,-10.0,-100.00,WSW,256,1.0,2.0,77,-99.99,,,0.00,0.120000,,2013-01-03 08:11:00,
2013-01-03 01:32:00,-4.0,-9.0,-100.00,West,272,3.0,4.0,79,-99.99,,,0.00,0.120000,,2013-01-03 08:32:00,
2013-01-03 01:42:00,-4.0,-9.0,-100.00,West,272,3.0,4.0,79,-99.99,,,0.00,0.120000,,2013-01-03 08:42:00,
2013-01-03 01:53:00,-4.0,-9.0,-100.00,West,272,3.0,4.0,79,-99.99,,,0.00,0.120000,,2013-01-03 08:53:00,
2013-01-03 02:02:00,-4.0,-9.0,-100.00,West,272,3.0,4.0,79,-99.99,,,0.00,0.120000,,2013-01-03 09:02:00,
2013-01-03 02:11:00,-4.0,-9.0,-100.00,West,272,3.0,4.0,79,-99.99,,,0.00,0.120000,,2013-01-03 09:11:00,
2013-01-03 02:33:00,-4.0,-9.0,-100.00,WNW,286,1.0,2.0,78,-99.99,,,0.00,0.120000,,2013-01-03 09:33:00,
2013-01-03 02:42:00,-4.0,-9.0,-100.00,WNW,286,1.0,2.0,78,-99.99,,,0.00,0.120000,,2013-01-03 09:42:00,
2013-01-03 02:53:00,-4.0,-9.0,-100.00,WNW,286,1.0,2.0,78,-99.99,,,0.00,0.120000,,2013-01-03 09:53:00,
2013-01-03 03:02:00,-4.0,-9.0,-100.00,WNW,286,1.0,2.0,78,-99.99,,,0.00,0.120000,,2013-01-03 10:02:00,
2013-01-03 03:12:00,-4.0,-9.0,-100.00,WNW,286,1.0,2.0,78,-99.99,,,0.00,0.120000,,2013-01-03 10:12:00,
2013-01-03 03:42:00,-1.0,-6.0,-100.00,SSW,203,1.0,2.0,79,-99.99,,,0.00,0.120000,,2013-01-03 10:42:00,
2013-01-03 03:52:00,-1.0,-6.0,-100.00,SSW,203,1.0,2.0,79,-99.99,,,0.00,0.120000,,2013-01-03 10:52:00,
2013-01-03 04:02:00,-1.0,-6.0,-100.00,SSW,203,1.0,2.0,79,-99.99,,,0.00,0.120000,,2013-01-03 11:02:00,
2013-01-03 04:11:00,-1.0,-6.0,-100.00,SSW,203,1.0,2.0,79,-99.99,,,0.00,0.120000,,2013-01-03 11:11:00,
2013-01-03 04:33:00,-1.0,-6.0,-100.00,NE,38,0.0,1.0,79,-99.99,,,0.00,0.120000,,2013-01-03 11:33:00,
2013-01-03 04:42:00,-1.0,-6.0,-100.00,NE,38,0.0,1.0,79,-99.99,,,0.00,0.120000,,2013-01-03 11:42:00,
2013-01-03 04:53:00,-1.0,-6.0,-100.00,NE,38,0.0,1.0,79,-99.99,,,0.00,0.120000,,2013-01-03 11:53:00,
2013-01-03 05:02:00,-1.0,-6.0,-100.00,NE,38,0.0,1.0,79,-99.99,,,0.00,0.120000,,2013-01-03 12:02:00,
2013-01-03 05:12:00,-1.0,-6.0,-100.00,NE,38,0.0,1.0,79,-99.99,,,0.00,0.120000,,2013-01-03 12:12:00,
2013-01-03 05:42:00,-2.0,-7.0,-100.00,West,264,4.0,5.0,78,-99.99,,,0.00,0.120000,,2013-01-03 12:42:00,
2013-01-03 05:53:00,-2.0,-7.0,-100.00,West,264,4.0,5.0,78,-99.99,,,0.00,0.120000,,2013-01-03 12:53:00,
2013-01-03 06:02:00,-2.0,-7.0,-100.00,West,264,4.0,5.0,78,-99.99,,,0.00,0.120000,,2013-01-03 13:02:00,
2013-01-03 06:12:00,-2.0,-7.0,-100.00,West,264,4.0,5.0,78,-99.99,,,0.00,0.120000,,2013-01-03 13:12:00,
2013-01-03 06:42:00,-1.0,-6.0,-100.00,SSW,197,3.0,4.0,78,-99.99,,,0.00,0.120000,,2013-01-03 13:42:00,
2013-01-03 06:53:00,-1.0,-6.0,-100.00,SSW,197,3.0,4.0,78,-99.99,,,0.00,0.120000,,2013-01-03 13:53:00,
2013-01-03 07:02:00,-1.0,-6.0,-100.00,SSW,197,3.0,4.0,78,-99.99,,,0.00,0.120000,,2013-01-03 14:02:00,
2013-01-03 07:12:00,-1.0,-6.0,-100.00,SSW,197,3.0,4.0,78,-99.99,,,0.00,0.120000,,2013-01-03 14:12:00,
2013-01-03 07:32:00,2.0,-3.0,-100.00,NW,309,1.0,2.0,80,-99.99,,,0.00,0.120000,,2013-01-03 14:32:00,
2013-01-03 07:42:00,2.0,-3.0,-100.00,NW,309,1.0,2.0,80,-99.99,,,0.00,0.120000,,2013-01-03 14:42:00,
2013-01-03 07:53:00,2.0,-3.0,-100.00,NW,309,1.0,2.0,80,-99.99,,,0.00,0.120000,,2013-01-03 14:53:00,
2013-01-03 08:02:00,2.0,-3.0,-100.00,NW,309,1.0,2.0,80,-99.99,,,0.00,0.120000,,2013-01-03 15:02:00,
2013-01-03 08:12:00,2.0,-3.0,-100.00,NW,309,1.0,2.0,80,-99.99,,,0.00,0.120000,,2013-01-03 15:12:00,
2013-01-03 08:33:00,1.0,-4.0,-100.00,SSW,203,2.0,3.0,80,-99.99,,,0.00,3.250000,,2013-01-03 15:33:00,
2013-01-03 08:42:00,1.0,-4.0,-100.00,SSW,203,2.0,3.0,80,-99.99,,,0.00,3.250000,,2013-01-03 15:42:00,
2013-01-03 08:53:00,1.0,-4.0,-100.00,SSW,203,2.0,3.0,80,-99.99,,,0.00,3.250000,,2013-01-03 15:53:00,
2013-01-03 09:03:00,1.0,-4.0,-100.00,SSW,203,2.0,3.0,80,-99.99,,,0.00,3.250000,,2013-01-03 16:03:00,
2013-01-03 09:12:00,1.0,-4.0,-100.00,SSW,203,2.0,3.0,80,-99.99,,,0.00,3.250000,,2013-01-03 16:12:00,
2013-01-03 09:33:00,0.0,-6.0,-100.00,West,272,1.0,3.0,78,-99.99,,,0.00,46.139999,,2013-01-03 16:33:00,
2013-01-03 09:43:00,0.0,-6.0,-100.00,West,272,1.0,3.0,78,-99.99,,,0.00,46.139999,,2013-01-03 16:43:00,
2013-01-03 09:53:00,0.0,-6.0,-100.00,West,272,1.0,3.0,78,-99.99,,,0.00,46.139999,,2013-01-03 16:53:00,
2013-01-03 10:02:00,0.0,-6.0,-100.00,West,272,1.0,3.0,78,-99.99,,,0.00,46.139999,,2013-01-03 17:02:00,
2013-01-03 10:12:00,0.0,-6.0,-100.00,West,272,1.0,3.0,78,-99.99,,,0.00,46.139999,,2013-01-03 17:12:00,
2013-01-03 10:42:00,4.0,-1.0,-100.00,ENE,75,2.0,3.0,79,-99.99,,,0.00,160.029999,,2013-01-03 17:42:00,
2013-01-03 10:53:00,4.0,-1.0,-100.00,ENE,75,2.0,3.0,79,-99.99,,,0.00,160.029999,,2013-01-03 17:53:00,
2013-01-03 11:03:00,4.0,-1.0,-100.00,ENE,75,2.0,3.0,79,-99.99,,,0.00,160.029999,,2013-01-03 18:03:00,
2013-01-03 11:12:00,4.0,-1.0,-100.00,ENE,75,2.0,3.0,79,-99.99,,,0.00,160.029999,,2013-01-03 18:12:00,
2013-01-03 11:42:00,7.0,2.0,-100.00,SW,217,2.0,2.0,77,-99.99,,,0.00,313.450012,,2013-01-03 18:42:00,
2013-01-03 11:53:00,7.0,2.0,-100.00,SW,217,2.0,2.0,77,-99.99,,,0.00,313.450012,,2013-01-03 18:53:00,
2013-01-03 12:03:00,7.0,2.0,-100.00,SW,217,2.0,2.0,77,-99.99,,,0.00,313.450012,,2013-01-03 19:03:00,
2013-01-03 12:12:00,7.0,2.0,-100.00,SW,217,2.0,2.0,77,-99.99,,,0.00,313.450012,,2013-01-03 19:12:00,
2013-01-03 12:56:00,13.0,4.0,-100.00,South,187,2.0,3.0,67,-99.99,,,0.00,370.510010,,2013-01-03 19:56:00,
2013-01-03 13:02:00,13.0,4.0,-100.00,South,187,2.0,3.0,67,-99.99,,,0.00,370.510010,,2013-01-03 20:02:00,
2013-01-03 13:12:00,13.0,4.0,-100.00,South,187,2.0,3.0,67,-99.99,,,0.00,370.510010,,2013-01-03 20:12:00,
2013-01-03 13:42:00,18.0,5.0,-100.00,South,178,0.0,1.0,54,-99.99,,,0.00,379.459991,,2013-01-03 20:42:00,
2013-01-03 13:53:00,18.0,5.0,-100.00,South,178,0.0,1.0,54,-99.99,,,0.00,379.459991,,2013-01-03 20:53:00,
2013-01-03 14:02:00,18.0,5.0,-100.00,South,178,0.0,1.0,54,-99.99,,,0.00,379.459991,,2013-01-03 21:02:00,
2013-01-03 14:12:00,18.0,5.0,-100.00,South,178,0.0,1.0,54,-99.99,,,0.00,379.459991,,2013-01-03 21:12:00,
2013-01-03 14:47:00,16.0,5.0,-100.00,NNE,19,3.0,6.0,60,-99.99,,,0.00,341.450012,,2013-01-03 21:47:00,
2013-01-03 14:53:00,16.0,5.0,-100.00,NNE,19,3.0,6.0,60,-99.99,,,0.00,341.450012,,2013-01-03 21:53:00,
2013-01-03 15:02:00,16.0,5.0,-100.00,NNE,19,3.0,6.0,60,-99.99,,,0.00,341.450012,,2013-01-03 22:02:00,
2013-01-03 15:12:00,16.0,5.0,-100.00,NNE,19,3.0,6.0,60,-99.99,,,0.00,341.450012,,2013-01-03 22:12:00,
2013-01-03 15:42:00,16.0,6.0,-100.00,NNE,20,5.0,7.0,63,-99.99,,,0.00,241.970001,,2013-01-03 22:42:00,
2013-01-03 15:52:00,16.0,6.0,-100.00,NNE,20,5.0,7.0,63,-99.99,,,0.00,241.970001,,2013-01-03 22:52:00,
2013-01-03 16:02:00,16.0,6.0,-100.00,NNE,20,5.0,7.0,63,-99.99,,,0.00,241.970001,,2013-01-03 23:02:00,
2013-01-03 16:12:00,16.0,6.0,-100.00,NNE,20,5.0,7.0,63,-99.99,,,0.00,241.970001,,2013-01-03 23:12:00,
2013-01-03 16:42:00,12.0,4.0,-100.00,NNW,348,3.0,4.0,68,-99.99,,,0.00,49.160000,,2013-01-03 23:42:00,
2013-01-03 16:53:00,12.0,4.0,-100.00,NNW,348,3.0,4.0,68,-99.99,,,0.00,49.160000,,2013-01-03 23:53:00,
2013-01-03 17:02:00,12.0,4.0,-100.00,NNW,348,3.0,4.0,68,-99.99,,,0.00,49.160000,,2013-01-04 00:02:00,
2013-01-03 17:12:00,12.0,4.0,-100.00,NNW,348,3.0,4.0,68,-99.99,,,0.00,49.160000,,2013-01-04 00:12:00,
2013-01-03 17:32:00,8.0,2.0,-100.00,NNW,332,2.0,4.0,74,-99.99,,,-99.99,2.090000,,2013-01-04 00:32:00,
2013-01-03 17:42:00,8.0,2.0,-100.00,NNW,332,2.0,4.0,74,-99.99,,,-99.99,2.090000,,2013-01-04 00:42:00,
2013-01-03 17:52:00,8.0,2.0,-100.00,NNW,332,2.0,4.0,74,-99.99,,,-99.99,2.090000,,2013-01-04 00:52:00,
2013-01-03 18:02:00,8.0,2.0,-100.00,NNW,332,2.0,4.0,74,-99.99,,,-99.99,2.090000,,2013-01-04 01:02:00,
2013-01-03 18:12:00,8.0,2.0,-100.00,NNW,332,2.0,4.0,74,-99.99,,,-99.99,2.090000,,2013-01-04 01:12:00,
2013-01-03 18:42:00,5.0,0.0,-100.00,WSW,256,5.0,5.0,76,-99.99,,,0.00,0.120000,,2013-01-04 01:42:00,
2013-01-03 18:52:00,5.0,0.0,-100.00,WSW,256,5.0,5.0,76,-99.99,,,0.00,0.120000,,2013-01-04 01:52:00,
2013-01-03 19:02:00,5.0,0.0,-100.00,WSW,256,5.0,5.0,76,-99.99,,,0.00,0.120000,,2013-01-04 02:02:00,
2013-01-03 19:12:00,5.0,0.0,-100.00,WSW,256,5.0,5.0,76,-99.99,,,0.00,0.120000,,2013-01-04 02:12:00,
2013-01-03 19:32:00,6.0,0.0,-100.00,SSW,196,5.0,6.0,78,-99.99,,,0.00,0.120000,,2013-01-04 02:32:00,
2013-01-03 19:42:00,6.0,0.0,-100.00,SSW,196,5.0,6.0,78,-99.99,,,0.00,0.120000,,2013-01-04 02:42:00,
2013-01-03 19:53:00,6.0,0.0,-100.00,SSW,196,5.0,6.0,78,-99.99,,,0.00,0.120000,,2013-01-04 02:53:00,
2013-01-03 20:02:00,6.0,0.0,-100.00,SSW,196,5.0,6.0,78,-99.99,,,0.00,0.120000,,2013-01-04 03:02:00,
2013-01-03 20:12:00,6.0,0.0,-100.00,SSW,196,5.0,6.0,78,-99.99,,,0.00,0.120000,,2013-01-04 03:12:00,
2013-01-03 20:32:00,6.0,1.0,-100.00,SSW,193,2.0,5.0,78,-99.99,,,0.00,0.120000,,2013-01-04 03:32:00,
2013-01-03 20:42:00,6.0,1.0,-100.00,SSW,193,2.0,5.0,78,-99.99,,,0.00,0.120000,,2013-01-04 03:42:00,
2013-01-03 20:53:00,6.0,1.0,-100.00,SSW,193,2.0,5.0,78,-99.99,,,0.00,0.120000,,2013-01-04 03:53:00,
2013-01-03 21:02:00,6.0,1.0,-100.00,SSW,193,2.0,5.0,78,-99.99,,,0.00,0.120000,,2013-01-04 04:02:00,
2013-01-03 21:12:00,6.0,1.0,-100.00,SSW,193,2.0,5.0,78,-99.99,,,0.00,0.120000,,2013-01-04 04:12:00,
2013-01-03 21:32:00,7.0,1.0,-100.00,NNW,341,4.0,5.0,77,-99.99,,,0.00,0.120000,,2013-01-04 04:32:00,
2013-01-03 21:42:00,7.0,1.0,-100.00,NNW,341,4.0,5.0,77,-99.99,,,0.00,0.120000,,2013-01-04 04:42:00,
2013-01-03 21:52:00,7.0,1.0,-100.00,NNW,341,4.0,5.0,77,-99.99,,,0.00,0.120000,,2013-01-04 04:52:00,
2013-01-03 22:03:00,7.0,1.0,-100.00,NNW,341,4.0,5.0,77,-99.99,,,0.00,0.120000,,2013-01-04 05:03:00,
2013-01-03 22:12:00,7.0,1.0,-100.00,NNW,341,4.0,5.0,77,-99.99,,,0.00,0.120000,,2013-01-04 05:12:00,
2013-01-03 22:33:00,3.0,-2.0,-100.00,NW,322,4.0,5.0,81,-99.99,,,0.00,0.000000,,2013-01-04 05:33:00,
2013-01-03 22:42:00,3.0,-2.0,-100.00,NW,322,4.0,5.0,81,-99.99,,,0.00,0.000000,,2013-01-04 05:42:00,
2013-01-03 22:52:00,3.0,-2.0,-100.00,NW,322,4.0,5.0,81,-99.99,,,0.00,0.000000,,2013-01-04 05:52:00,
2013-01-03 23:02:00,3.0,-2.0,-100.00,NW,322,4.0,5.0,81,-99.99,,,0.00,0.000000,,2013-01-04 06:02:00,
2013-01-03 23:12:00,3.0,-2.0,-100.00,NW,322,4.0,5.0,81,-99.99,,,0.00,0.000000,,2013-01-04 06:12:00,
2013-01-03 23:42:00,1.0,-3.0,-100.00,NW,307,4.0,7.0,82,-99.99,,,0.00,0.120000,,2013-01-04 06:42:00,
2013-01-03 23:52:00,1.0,-3.0,-100.00,NW,307,4.0,7.0,82,-99.99,,,0.00,0.120000,,2013-01-04 06:52:00,